Location: ????????
(55.3975°N, 38.2844°E)
Time: 05:01:06
(UTC+00:00)

BlueWalker 3 - Pass Details

Date: 22 August 2024
Orbit: 476 x 487 km, 53.2° (Epoch: 08 September)

Event Time Altitude Azimuth Distance (km) Brightness Sun altitude
Exits shadow 00:07:02 31° 230° (SW) 882 2.6 -15.3°
Maximum altitude 00:07:45 34° 205° (SSW) 828 2.5 -15.2°
Drops below altitude 10° 00:11:12 10° 140° (SE) 1,681 4.5 -14.9°
Sets 00:13:30 0° 131° (SE) 2,561 5.5 -14.7°
